Weather History for Chippewa, MI

Change the Weather History Date:

Monday, November 11, 2013

  Actual Average Record
Temperature  
Mean Temperature 30 °F -  
Max Temperature 39 °F 38 °F 62 °F (2012)
Min Temperature 21 °F 26 °F 13 °F (1979)
Degree Days  
Heating Degree Days 35    
Moisture  
Dew Point 24 °F    
Average Humidity 81    
Maximum Humidity 100    
Minimum Humidity 64    
Precipitation  
Precipitation 0.01 in - - ()
Sea Level Pressure  
Sea Level Pressure 30.05 in    
Wind  
Wind Speed 14 mph (WNW)    
Max Wind Speed 28 mph    
Max Gust Speed 39 mph    
Visibility 8 miles    
Events      
Averages and records for this station are not official NWS values.
T = Trace of Precipitation, MM = Missing Value Source: NWS Daily Summary

Daily Weather History Graph

Daily Weather History Graph

Search for Another Location

Airport:

Trip Planner

Search our weather history database for the weather conditions in past years. The results will help you decide how hot, cold, wet, or windy it might be!

Date:

Astronomy

Nov. 11, 2013 Rise Set
Actual Time 7:33 AM EST 5:09 PM EST
Civil Twilight 7:01 AM EST 5:41 PM EST
Nautical Twilight 6:25 AM EST 6:18 PM EST
Astronomical Twilight 5:50 AM EST 6:53 PM EST
Moon 2:08 PM EST (11/11) 12:57 AM EST (11/11)
Length of Visible Light 10h 40m
Length of Day
9h 35m
Waxing Gibbous, 66% of the Moon is Illuminated
Nov 11
Waxing Gibbous
Nov 17
Full
Nov 25
Last Quarter
Dec 2
New
Dec 9
First Quarter

Hourly Weather History & Observations

Time (EST) Temp. Windchill Dew Point Humidity Pressure Visibility Wind Dir Wind Speed Gust Speed Precip Events Conditions
12:15 AM 35.6 °F 32.8 °F 33.8 °F 93% 29.98 in 10.0 mi SSW 3.5 mph - N/A   Overcast
12:35 AM 35.6 °F 32.8 °F 33.8 °F 93% 29.98 in 10.0 mi SSW 3.5 mph - N/A   Overcast
12:55 AM 35.6 °F 31.7 °F 33.8 °F 93% 29.97 in 10.0 mi SW 4.6 mph - N/A   Overcast
1:15 AM 37.4 °F 32.1 °F 32.0 °F 81% 29.96 in 10.0 mi WSW 6.9 mph - N/A   Overcast
1:35 AM 37.4 °F 31.4 °F 32.0 °F 81% 29.95 in 10.0 mi West 8.1 mph - N/A   Overcast
1:55 AM 37.4 °F 30.3 °F 32.0 °F 81% 29.94 in 10.0 mi West 10.4 mph - N/A   Overcast
2:15 AM 39.2 °F 32.0 °F 32.0 °F 75% 29.93 in 10.0 mi West 11.5 mph 16.1 mph N/A   Overcast
2:35 AM 39.2 °F 32.5 °F 30.2 °F 70% 29.92 in 10.0 mi WSW 10.4 mph - N/A   Overcast
2:55 AM 39.2 °F 31.2 °F 30.2 °F 70% 29.92 in 10.0 mi West 13.8 mph 18.4 mph N/A   Overcast
3:15 AM 39.2 °F 30.8 °F 30.2 °F 70% 29.91 in 10.0 mi WSW 15.0 mph 21.9 mph N/A   Overcast
3:35 AM 37.4 °F 27.8 °F 30.2 °F 75% 29.91 in 10.0 mi West 17.3 mph 27.6 mph N/A   Overcast
3:55 AM 37.4 °F 28.5 °F 30.2 °F 75% 29.90 in 10.0 mi West 15.0 mph 21.9 mph N/A   Overcast
4:15 AM 35.6 °F 27.1 °F 33.8 °F 93% 29.90 in 9.0 mi WSW 12.7 mph 21.9 mph N/A   Overcast
4:35 AM 33.8 °F 25.3 °F 33.8 °F 100% 29.90 in 8.0 mi WSW 11.5 mph 20.7 mph N/A   Overcast
4:55 AM 33.8 °F 25.8 °F 33.8 °F 100% 29.89 in 6.0 mi WSW 10.4 mph - N/A   Overcast
5:15 AM 33.8 °F 22.2 °F 32.0 °F 93% 29.90 in 1.8 mi NW 20.7 mph 28.8 mph 0.01 in   Overcast
5:35 AM 32.0 °F 22.5 °F 32.0 °F 100% 29.91 in 1.8 mi WNW 12.7 mph 24.2 mph 0.01 in   Overcast
5:55 AM 30.2 °F 18.9 °F 30.2 °F 100% 29.91 in 2.0 mi NW 16.1 mph - 0.01 in   Overcast
6:15 AM 30.2 °F 15.9 °F 30.2 °F 100% 29.91 in 4.0 mi WNW 26.5 mph 33.4 mph N/A   Overcast
6:35 AM 30.2 °F 17.1 °F 28.4 °F 93% 29.92 in 10.0 mi WNW 21.9 mph 27.6 mph N/A   Overcast
6:55 AM 28.4 °F 15.4 °F 26.6 °F 93% 29.93 in 9.0 mi NW 19.6 mph 25.3 mph N/A   Overcast
7:15 AM 28.4 °F 16.6 °F 26.6 °F 93% 29.94 in 10.0 mi WNW 16.1 mph 23.0 mph N/A   Overcast
7:35 AM 28.4 °F 14.7 °F 26.6 °F 93% 29.93 in 10.0 mi NW 21.9 mph 29.9 mph N/A   Overcast
7:55 AM 28.4 °F 16.2 °F 24.8 °F 86% 29.95 in 9.0 mi WNW 17.3 mph 26.5 mph N/A   Mostly Cloudy
8:15 AM 28.4 °F 15.8 °F 24.8 °F 86% 29.95 in 10.0 mi WNW 18.4 mph 21.9 mph N/A   Overcast
8:35 AM 28.4 °F 16.6 °F 21.2 °F 74% 29.97 in 10.0 mi WNW 16.1 mph 28.8 mph N/A   Overcast
8:55 AM 28.4 °F 17.0 °F 21.2 °F 74% 29.98 in 10.0 mi NW 15.0 mph 31.1 mph N/A   Overcast
9:15 AM 28.4 °F 14.7 °F 21.2 °F 74% 29.97 in 10.0 mi WNW 21.9 mph 27.6 mph N/A   Overcast
9:35 AM 28.4 °F 13.3 °F 21.2 °F 74% 29.97 in 10.0 mi NW 27.6 mph 33.4 mph N/A   Overcast
9:55 AM 28.4 °F 14.4 °F 19.4 °F 69% 29.99 in 10.0 mi NW 23.0 mph 29.9 mph N/A   Mostly Cloudy
10:15 AM 28.4 °F 15.8 °F 19.4 °F 69% 30.00 in 10.0 mi NW 18.4 mph 28.8 mph N/A   Mostly Cloudy
10:35 AM 28.4 °F 14.4 °F 19.4 °F 69% 29.99 in 9.0 mi WNW 23.0 mph 39.1 mph N/A   Mostly Cloudy
10:55 AM 28.4 °F 14.4 °F 19.4 °F 69% 30.00 in 10.0 mi WNW 23.0 mph 31.1 mph N/A   Mostly Cloudy
11:15 AM 28.4 °F 14.7 °F 19.4 °F 69% 30.01 in 5.0 mi NW 21.9 mph 32.2 mph N/A   Mostly Cloudy
11:35 AM 28.4 °F 14.1 °F 23.0 °F 80% 30.02 in 1.5 mi WNW 24.2 mph 33.4 mph N/A   Overcast
11:55 AM 28.4 °F 15.4 °F 23.0 °F 80% 30.02 in 10.0 mi WNW 19.6 mph 29.9 mph N/A   Mostly Cloudy
12:15 PM 28.4 °F 15.1 °F 21.2 °F 74% 30.02 in 10.0 mi West 20.7 mph 35.7 mph N/A   Mostly Cloudy
12:35 PM 28.4 °F 13.5 °F 19.4 °F 69% 30.02 in 9.0 mi WNW 26.5 mph 39.1 mph N/A   Mostly Cloudy
12:55 PM 28.4 °F 15.1 °F 21.2 °F 74% 30.02 in 7.0 mi WNW 20.7 mph 35.7 mph N/A   Overcast
1:15 PM 28.4 °F 15.4 °F 21.2 °F 74% 30.03 in 7.0 mi WNW 19.6 mph 35.7 mph N/A   Mostly Cloudy
1:35 PM 30.2 °F 17.8 °F 19.4 °F 64% 30.04 in 10.0 mi WNW 19.6 mph 27.6 mph N/A   Overcast
1:55 PM 28.4 °F 14.4 °F 19.4 °F 69% 30.04 in 9.0 mi WNW 23.0 mph 33.4 mph N/A   Overcast
2:15 PM 30.2 °F 16.8 °F 19.4 °F 64% 30.05 in 10.0 mi WNW 23.0 mph 32.2 mph N/A   Overcast
2:35 PM 28.4 °F 16.2 °F 21.2 °F 74% 30.06 in 2.5 mi WNW 17.3 mph 26.5 mph N/A   Mostly Cloudy
2:55 PM 28.4 °F 15.4 °F 23.0 °F 80% 30.07 in 1.5 mi WNW 19.6 mph 32.2 mph N/A   Overcast
3:15 PM 26.6 °F 13.1 °F 24.8 °F 93% 30.08 in 2.0 mi West 19.6 mph 29.9 mph N/A   Overcast
3:35 PM 26.6 °F 12.7 °F 21.2 °F 80% 30.09 in 5.0 mi WNW 20.7 mph 24.2 mph N/A   Overcast
3:55 PM 26.6 °F 13.1 °F 21.2 °F 80% 30.09 in 9.0 mi West 19.6 mph 29.9 mph N/A   Overcast
4:15 PM 26.6 °F 13.1 °F 21.2 °F 80% 30.09 in 8.0 mi West 19.6 mph 26.5 mph N/A   Mostly Cloudy
4:35 PM 26.6 °F 13.8 °F 21.2 °F 80% 30.10 in 10.0 mi WNW 17.3 mph 25.3 mph N/A   Overcast
4:55 PM 26.6 °F 16.2 °F 21.2 °F 80% 30.12 in 10.0 mi NW 11.5 mph 19.6 mph N/A   Overcast
5:15 PM 26.6 °F 13.4 °F 19.4 °F 74% 30.13 in 10.0 mi NW 18.4 mph 27.6 mph N/A   Overcast
5:35 PM 26.6 °F 15.2 °F 17.6 °F 69% 30.13 in 10.0 mi NW 13.8 mph 20.7 mph N/A   Overcast
5:55 PM 24.8 °F 11.1 °F 19.4 °F 80% 30.14 in 7.0 mi NW 18.4 mph 27.6 mph N/A   Mostly Cloudy
6:15 PM 24.8 °F 11.5 °F 19.4 °F 80% 30.15 in 5.0 mi NW 17.3 mph 25.3 mph N/A   Overcast
6:35 PM 24.8 °F 9.6 °F 19.4 °F 80% 30.16 in 10.0 mi NW 23.0 mph 27.6 mph N/A   Overcast
6:55 PM 24.8 °F 11.9 °F 17.6 °F 74% 30.18 in 10.0 mi NW 16.1 mph 29.9 mph N/A   Mostly Cloudy
7:15 PM 24.8 °F 9.6 °F 19.4 °F 80% 30.18 in 2.5 mi NW 23.0 mph 31.1 mph N/A   Overcast
7:35 PM 24.8 °F 11.9 °F 21.2 °F 86% 30.21 in 3.0 mi NNW 16.1 mph 21.9 mph N/A   Overcast
7:55 PM 24.8 °F 11.9 °F 21.2 °F 86% 30.21 in 8.0 mi NW 16.1 mph 19.6 mph N/A   Overcast
8:15 PM 24.8 °F 11.5 °F 19.4 °F 80% 30.22 in 10.0 mi NW 17.3 mph 27.6 mph N/A   Overcast
8:35 PM 24.8 °F 10.7 °F 17.6 °F 74% 30.22 in 10.0 mi NNW 19.6 mph 26.5 mph N/A   Mostly Cloudy
8:55 PM 24.8 °F 10.0 °F 19.4 °F 80% 30.23 in 8.0 mi NNW 21.9 mph 27.6 mph N/A   Mostly Cloudy
9:15 PM 26.6 °F 13.8 °F 19.4 °F 74% 30.24 in 10.0 mi NW 17.3 mph 27.6 mph N/A   Overcast
9:35 PM 26.6 °F 14.7 °F 19.4 °F 74% 30.25 in 10.0 mi NW 15.0 mph 27.6 mph N/A   Overcast
9:55 PM 26.6 °F 13.4 °F 21.2 °F 80% 30.26 in 10.0 mi NNW 18.4 mph 25.3 mph N/A   Overcast
10:15 PM 24.8 °F 10.7 °F 19.4 °F 80% 30.28 in 10.0 mi NNW 19.6 mph 24.2 mph N/A   Overcast
10:35 PM 24.8 °F 12.4 °F 19.4 °F 80% 30.29 in 10.0 mi NNW 15.0 mph - N/A   Overcast
10:55 PM 21.2 °F 8.9 °F 17.6 °F 86% 30.31 in 10.0 mi North 12.7 mph 17.3 mph N/A   Overcast
11:15 PM 21.2 °F 10.1 °F 17.6 °F 86% 30.31 in 10.0 mi NNW 10.4 mph 17.3 mph N/A   Overcast
11:35 PM 21.2 °F 9.5 °F 17.6 °F 86% 30.31 in 10.0 mi NNW 11.5 mph - N/A   Overcast
11:55 PM 21.2 °F 8.9 °F 17.6 °F 86% 30.32 in 10.0 mi North 12.7 mph - N/A   Overcast